SCP
-0 0 0 0 0 0 0 0 0 0 0 0 0 0 0 0 0 0 0 -0 -0 -0 -0 -0 -0 -0 -0 -0 -0 -0 -0 -0 -0 -0 -0 -0 -0 -0 0 0 0 0 0 -0
-0 0 0 0 0 0 0 0 0 0 0 0 0 0 0 0 0 0 0 -0 -0 -0 -0 -0 -0 -0 -0 -0 -0 -0 -0 -0 0 -0 -0 -0 -0 -0 0 0 -0 0 0 -0
-0 0 0 0 0 0 0 0 0 0 0 0 0 0 0 0 0 0 -0 -0 -0 -0 -0 -0 -0 -0 -0 -0 -0 -0 -0 -0 -0 -0 -0 -0 -0 -0 -0 0 0 0 0 -0
0 0 0 0 0 0 0 0 0 0 0 0 0 0 0 0 0 0 0 0 -0 -0 -0 -0 -0 -0 -0 -0 -0 -0 -0 -0 -0 -0 -0 -0 -0 0 0 0 -0 0 0 -0
0 0 0 0 0 0 0 0 0 0 0 0 0 0 0 0 0 0 0 0 -0 -0 -0 -0 -0 -0 -0 -0 -0 -0 -0 -0 -0 -0 -0 -0 -0 0 -0 -0 -0 -0 0 0
0 0 0 0 0 0 0 0 0 0 0 0 0 0 0 0 0 0 0 0 -0 -0 -0 -0 -0 -0 -0 -0 -0 -0 -0 -0 -0 0 0 0 -0 0 0 0 0 0 0 0
0 0 -0 0 0 0 0 0 0 0 0 0 0 0 0 0 0 0 0 0 0 -0 -0 -0 -0 -0 -0 -0 -0 -0 -0 -0 -0 0 0 0 0 0 0 0 0 0 0 0
0 0 0 0 0 0 0 0 0 0 0 0 0 0 0 0 0 0 0 0 0 0 -0 -0 -0 -0 -0 -0 -0 -0 -0 -0 -0 -0 0 0 0 0 0 0 0 0 0 0
0 0 0 0 0 0 0 0 0 0 0 0 0 0 0 0 0 0 0 0 0 0 -0 -0 -0 -0 -0 -0 -0 -0 -0 -0 -0 -0 -0 -0 0 0 0 0 0 0 0 -0
0 0 0 0 0 0 0 0 0 0 0 0 0 0 0 0 0 0 0 0 0 0 -0 -0 -0 -0 -0 -0 -0 -0 -0 -0 -0 -0 -0 -0 0 0 0 0 0 0 0 0
0 0 0 0 0 0 0 0 0 0 0 0 0 0 0 0 1 1 0 0 0 0 -0 -0 -0 -0 -0 -0 -0 -0 -0 -0 -0 -0 -0 -0 0 0 0 0 0 0 0 0
0 0 0 0 0 0 0 0 0 0 0 0 0 0 0 0 0 1 1 0 0 0 0 -0 -0 -0 -0 -0 -0 -0 -0 -0 -0 -0 -0 0 0 0 0 0 -0 -0 0 0
0 0 0 0 0 0 0 0 0 0 0 0 0 0 0 0 0 0 0 0 0 0 0 0 -0 -0 -0 -0 -0 -0 -0 -0 -0 -0 0 0 0 0 0 0 0 0 -0 -0
0 0 0 0 0 0 0 0 0 0 0 0 0 0 0 0 0 0 1 1 0 0 0 0 -0 -0 -0 -0 -0 -0 -0 -0 -0 -0 0 0 0 0 0 0 -0 0 -0 -0
0 0 0 0 0 0 0 0 0 0 0 0 0 0 0 0 0 0 1 1 1 0 0 0 0 -0 -0 -0 -0 -0 -0 -0 -0 -0 0 0 0 0 0 0 0 -0 -0 0
0 0 0 0 0 0 0 0 0 0 0 0 0 0 0 0 0 0 0 1 1 0 0 0 0 0 -0 -0 -0 -0 -0 0 0 0 0 0 0 0 0 0 0 0 0 0
0 0 0 0 0 0 0 0 0 0 0 0 0 0 0 0 0 0 0 0 1 1 0 0 0 0 0 0 0 0 0 0 0 0 0 0 0 0 0 0 0 0 0 0
0 0 0 0 0 0 0 0 0 0 0 0 0 0 0 0 0 0 0 0 2 2 2 1 1 0 0 0 0 0 0 0 0 0 0 0 0 0 0 0 0 0 0 0
0 0 0 0 0 0 0 0 0 0 0 0 0 0 0 0 0 0 0 0 2 2 2 2 0 1 1 0 0 0 0 0 0 0 0 0 0 0 0 0 0 0 0 0
0 -0 0 0 0 0 0 0 0 0 0 0 0 0 0 0 0 0 0 0 0 0 0 1 1 1 1 1 0 0 0 0 0 0 0 0 0 0 0 0 0 0 0 0
0 0 0 0 0 0 0 0 0 0 0 0 0 0 0 0 0 0 0 0 -0 0 0 0 1 2 1 0 0 0 0 0 0 1 0 0 0 0 0 0 0 0 0 0
0 -0 0 0 0 0 0 0 0 0 0 0 0 0 0 0 0 0 0 0 0 0 0 0 0 0 0 0 1 0 0 0 0 1 1 0 0 0 0 0 0 0 0 0
0 0 -0 0 0 0 0 0 0 0 0 0 0 0 0 0 0 0 0 0 0 0 0 0 0 0 0 0 2 1 0 0 0 0 1 1 1 1 1 1 1 0 1 1
-0 -0 0 0 -0 0 0 0 0 0 0 0 0 0 0 0 0 0 0 0 0 0 0 0 0 0 0 0 1 3 1 0 1 1 1 0 0 0 1 1 1 1 1 1
0 -0 0 0 0 0 0 0 0 0 0 0 0 0 0 0 0 0 0 0 0 0 0 0 0 0 0 0 0 1 2 3 2 1 1 1 1 1 1 1 1 0 0 0
0 0 -0 0 -0 -0 -0 -0 0 0 0 0 0 0 0 0 0 0 0 0 0 0 0 0 0 0 0 0 0 0 1 2 2 3 2 1 1 1 1 0 0 0 0 1
-0 0 0 0 -0 -0 -0 -0 -0 0 -0 0 0 -0 -0 -0 -0 0 0 0 0 0 0 0 0 0 0 0 0 0 0 1 0 1 1 1 1 1 1 1 1 1 1 1
Wind_Speed_500mb
10 42 54 55 61 54 61 44 33 40 23 23 32 28 22 29 34 39 44 46 47 48 47 45 42 39 34 33 30 28 23 20 13 12 14 15 15 15 21 21 19 13 16 13
19 38 54 39 58 50 54 41 38 27 33 20 31 28 22 24 31 37 41 45 46 47 46 45 43 40 37 34 32 29 25 22 19 18 19 16 16 17 21 21 22 15 19 13
12 36 48 32 46 57 44 50 34 23 19 21 9 11 8 24 7 34 38 39 45 48 48 46 44 41 39 36 33 31 28 23 23 22 21 21 19 18 16 18 20 22 18 19
8 27 20 23 24 38 42 41 37 24 26 14 19 20 20 16 24 9 31 37 39 43 44 45 44 42 38 37 36 33 30 27 25 25 23 23 20 19 18 21 23 24 21 18
6 19 30 7 11 7 38 23 23 14 11 21 21 12 3 15 19 19 17 36 39 42 43 42 45 46 43 40 38 35 32 30 28 27 23 22 19 19 18 12 14 17 22 24
12 14 9 14 17 14 4 23 17 12 12 15 16 14 17 19 20 20 19 38 40 44 46 45 45 46 46 43 41 38 35 32 30 27 23 21 18 18 16 12 12 13 18 21
18 17 15 23 25 3 21 13 10 15 14 12 12 21 28 23 16 13 15 25 37 44 48 48 48 47 46 45 44 40 36 35 32 29 26 23 19 13 18 17 10 15 22 25
10 7 8 41 10 6 12 14 17 15 18 13 15 21 22 19 16 12 9 22 39 46 49 50 50 50 46 46 44 42 40 39 35 33 29 23 20 19 16 19 20 22 22 23
9 3 25 21 33 33 29 19 20 19 18 18 19 20 21 17 14 12 12 22 40 46 50 51 53 52 50 46 47 46 43 42 40 34 31 26 23 23 21 20 19 20 22 19
4 12 18 28 33 32 23 26 23 21 20 20 21 23 21 17 13 10 11 20 38 48 54 55 55 53 49 48 48 48 47 45 42 38 35 30 26 23 21 22 20 20 25 22
3 15 17 2 25 27 21 25 27 25 23 22 23 24 24 21 14 9 12 18 35 48 52 54 55 54 52 51 52 51 49 47 45 41 40 34 30 25 23 23 22 20 20 21
5 9 12 24 33 20 23 27 26 28 27 25 24 26 28 26 22 14 11 17 30 45 52 55 57 57 56 55 56 55 54 50 47 44 44 38 36 33 33 29 34 27 27 25
10 23 26 28 14 19 26 25 26 26 25 25 26 28 30 32 29 28 14 19 28 43 50 53 56 58 58 58 58 58 58 53 48 46 43 44 41 37 37 36 33 41 38 31
18 22 25 14 25 23 22 23 23 24 21 23 27 28 31 34 33 29 21 13 25 35 48 54 58 61 60 60 61 59 62 55 50 49 44 45 43 42 38 38 39 40 46 47
26 26 24 26 23 18 18 23 23 22 23 24 26 28 32 34 33 31 28 16 14 32 43 53 58 62 62 62 65 63 61 55 52 46 46 43 42 42 40 40 38 38 39 51
27 24 26 29 27 21 18 23 25 24 26 27 27 28 31 31 29 28 27 22 13 26 35 49 57 62 63 64 69 64 64 58 58 49 48 47 46 44 42 42 41 42 45 46
38 35 32 28 27 32 29 23 25 27 28 28 28 30 29 29 28 29 28 26 16 14 26 39 49 55 63 64 71 61 58 60 63 55 50 51 50 49 46 45 45 45 46 47
29 28 25 26 27 29 29 26 28 29 30 29 30 29 28 28 30 30 32 30 19 9 11 18 32 47 59 66 70 65 61 58 67 61 52 53 52 52 51 51 50 49 47 48
22 27 30 29 27 29 30 29 28 29 29 29 29 27 27 26 26 28 28 26 16 15 5 9 24 45 50 63 70 68 64 61 60 68 60 55 56 52 54 54 53 52 49 49
33 34 32 33 34 31 33 33 36 33 32 28 28 26 26 24 26 26 24 19 17 21 16 18 19 25 32 41 66 64 66 65 65 62 69 62 60 62 58 56 53 53 53 54
36 35 34 39 36 38 36 37 37 36 35 29 26 26 25 25 25 25 22 17 12 22 14 21 12 3 28 35 40 65 61 65 67 66 64 74 66 64 64 58 59 58 57 59
32 32 32 34 41 45 48 39 37 40 43 37 33 31 28 26 23 23 20 21 18 25 19 16 20 14 23 38 42 49 63 63 66 67 65 65 74 67 68 68 63 63 65 62
26 28 28 30 33 39 44 44 41 46 45 44 37 38 34 31 25 27 28 19 20 28 27 19 19 18 19 23 23 39 49 62 61 64 65 64 64 73 65 66 62 59 55 60
17 21 26 28 27 29 37 40 41 45 47 47 47 47 44 40 32 22 27 34 32 34 31 37 33 24 20 18 17 21 35 52 51 56 57 58 58 58 65 59 63 60 58 62
15 15 18 27 26 25 31 37 37 43 48 49 48 54 49 41 37 41 38 37 33 37 36 32 39 39 32 24 19 24 27 27 41 42 48 49 52 54 55 67 63 55 51 66
12 13 10 19 22 20 27 31 35 38 45 48 47 52 57 52 45 46 37 36 37 34 35 35 32 30 32 27 26 26 27 31 33 29 37 43 50 52 53 62 64 68 72 77
11 7 16 14 21 19 24 24 28 33 36 43 47 47 51 63 64 52 48 39 32 30 31 35 36 35 33 31 31 29 30 35 39 39 39 42 45 49 52 52 57 66 80 81
Wind_Direction_500mb
271 294 301 210 206 198 194 206 201 197 193 164 125 104 105 137 156 160 166 168 168 170 168 165 168 166 166 167 168 168 168 163 164 142 137 151 154 154 152 162 156 156 146 119
277 274 281 209 213 202 196 199 222 183 193 164 131 129 129 130 171 175 175 176 173 173 171 169 170 168 169 169 168 166 165 158 148 144 146 151 145 146 148 153 151 154 146 137
237 257 260 212 202 196 200 195 213 192 196 204 153 142 124 78 120 189 183 181 180 178 175 173 172 170 171 170 167 165 162 154 149 149 150 147 148 150 152 154 150 155 152 150
265 248 217 201 204 198 192 194 203 223 195 160 54 41 31 0 341 226 193 182 182 183 178 174 171 171 170 171 168 166 164 159 155 158 157 156 158 159 165 170 163 166 165 163
251 229 105 81 150 173 186 151 29 319 260 35 42 346 185 39 340 327 271 182 185 183 179 177 174 171 171 171 169 169 167 164 161 162 161 160 166 170 172 181 164 168 172 172
259 226 169 318 15 21 359 104 43 8 23 8 346 242 92 358 344 335 319 181 181 181 179 177 178 176 172 173 172 174 170 167 167 169 169 164 157 158 163 155 136 156 156 156
259 244 116 336 322 289 206 81 34 35 39 3 316 334 323 318 324 324 292 186 182 180 180 179 179 178 178 176 177 175 171 169 166 164 162 159 155 156 150 143 140 123 134 138
228 235 103 343 50 11 60 72 43 32 31 2 330 315 311 309 303 290 264 207 186 181 181 181 182 181 183 181 177 174 173 172 170 166 166 167 160 148 148 147 127 119 121 123
40 46 295 35 55 42 21 43 28 18 13 1 346 342 321 308 296 273 238 212 191 186 183 184 185 185 185 185 179 176 175 176 176 174 173 172 167 155 156 153 146 136 136 138
311 9 324 54 40 26 18 2 7 11 9 2 356 346 339 326 307 273 238 212 196 190 187 186 187 188 187 186 182 179 178 178 179 179 177 176 175 168 167 163 164 167 154 152
17 6 310 258 7 357 5 358 356 3 359 5 356 354 348 338 329 288 238 221 203 195 190 190 189 189 187 187 184 183 182 181 182 184 182 182 179 181 179 176 176 173 168 162
356 359 309 308 322 347 346 346 342 346 347 358 355 351 351 352 349 333 264 227 206 200 195 193 192 191 188 189 187 185 185 186 186 186 189 189 186 190 191 189 191 187 174 173
309 311 304 304 302 333 332 333 335 331 338 347 354 351 355 354 354 340 285 237 218 205 200 196 194 193 192 190 189 189 187 189 190 188 193 192 194 195 196 199 200 194 188 188
331 338 319 318 322 320 316 323 329 330 337 343 348 351 355 355 355 353 343 300 227 210 204 200 197 196 194 192 192 192 192 194 192 191 197 197 198 198 199 200 199 199 199 199
343 333 307 303 305 324 326 320 329 330 336 338 342 349 353 354 353 349 347 320 242 213 207 203 200 199 195 193 193 192 192 195 194 198 199 199 201 201 202 201 201 201 200 201
338 329 334 333 329 331 331 324 320 327 326 329 331 336 342 346 347 350 350 351 302 220 213 207 205 202 198 195 194 195 196 194 196 199 200 202 201 203 203 203 202 202 203 205
360 356 347 342 338 330 328 326 318 317 316 319 322 325 331 339 344 350 352 347 329 270 220 213 211 206 203 201 198 199 200 199 201 196 203 205 204 205 204 204 204 205 207 208
18 3 354 346 345 344 337 334 329 322 320 315 313 315 321 332 337 344 348 351 348 284 247 213 213 211 207 206 204 203 203 204 205 202 205 206 208 207 208 208 208 209 210 211
3 2 8 3 357 357 353 349 342 329 317 309 309 306 310 316 326 333 342 353 354 28 27 269 235 206 209 210 207 206 207 207 208 206 207 208 208 209 211 212 213 213 212 212
15 21 14 1 4 7 1 354 346 343 338 322 312 307 302 307 316 326 330 340 10 345 347 317 286 244 223 214 212 211 211 211 210 212 208 209 210 211 213 215 216 217 216 215
12 16 8 13 11 11 12 8 2 356 349 342 329 313 303 302 302 314 321 316 344 332 24 9 355 288 226 225 223 214 215 217 212 211 213 214 213 212 214 215 217 218 220 220
11 16 8 10 13 14 12 8 11 10 5 358 348 342 326 311 310 304 302 304 302 312 338 345 325 265 249 217 215 218 219 221 218 215 214 216 218 216 214 216 217 219 220 223
4 9 5 6 5 9 17 20 16 14 13 9 3 358 342 333 319 305 299 289 304 302 310 318 310 288 257 243 223 229 228 222 226 218 219 218 219 218 219 219 220 222 225 227
10 6 9 6 356 3 8 9 15 16 15 10 10 10 355 340 316 310 307 296 304 305 295 294 296 298 290 256 264 255 235 220 228 222 222 224 223 220 216 215 213 212 219 224
357 6 22 5 3 1 3 3 8 7 9 9 9 8 2 358 342 311 303 307 299 292 289 287 292 287 280 276 272 260 260 242 232 226 225 226 223 222 219 214 220 223 242 257
346 2 31 18 4 5 4 3 7 5 10 7 7 10 5 3 353 348 327 291 278 288 283 275 273 279 280 271 266 269 256 256 253 240 229 228 228 226 226 226 233 238 251 262
333 348 354 6 3 7 9 360 1 1 3 6 6 0 4 4 7 359 351 340 315 285 283 276 269 266 269 268 263 263 262 258 254 247 239 247 246 241 241 240 243 246 247 245
Wind_Speed_850mb
10 42 54 55 61 54 61 44 33 40 23 23 32 28 22 29 34 39 44 46 47 48 47 45 42 39 34 33 30 28 23 20 13 12 14 15 15 15 21 21 19 13 16 13
19 38 54 39 58 50 54 41 38 27 33 20 31 28 22 24 31 37 41 45 46 47 46 45 43 40 37 34 32 29 25 22 19 18 19 16 16 17 21 21 22 15 19 13
12 36 48 32 46 57 44 50 34 23 19 21 9 11 8 24 7 34 38 39 45 48 48 46 44 41 39 36 33 31 28 23 23 22 21 21 19 18 16 18 20 22 18 19
8 27 20 23 24 38 42 41 37 24 26 14 19 20 20 16 24 9 31 37 39 43 44 45 44 42 38 37 36 33 30 27 25 25 23 23 20 19 18 21 23 24 21 18
6 19 30 7 11 7 38 23 23 14 11 21 21 12 3 15 19 19 17 36 39 42 43 42 45 46 43 40 38 35 32 30 28 27 23 22 19 19 18 12 14 17 22 24
12 14 9 14 17 14 4 23 17 12 12 15 16 14 17 19 20 20 19 38 40 44 46 45 45 46 46 43 41 38 35 32 30 27 23 21 18 18 16 12 12 13 18 21
18 17 15 23 25 3 21 13 10 15 14 12 12 21 28 23 16 13 15 25 37 44 48 48 48 47 46 45 44 40 36 35 32 29 26 23 19 13 18 17 10 15 22 25
10 7 8 41 10 6 12 14 17 15 18 13 15 21 22 19 16 12 9 22 39 46 49 50 50 50 46 46 44 42 40 39 35 33 29 23 20 19 16 19 20 22 22 23
9 3 25 21 33 33 29 19 20 19 18 18 19 20 21 17 14 12 12 22 40 46 50 51 53 52 50 46 47 46 43 42 40 34 31 26 23 23 21 20 19 20 22 19
4 12 18 28 33 32 23 26 23 21 20 20 21 23 21 17 13 10 11 20 38 48 54 55 55 53 49 48 48 48 47 45 42 38 35 30 26 23 21 22 20 20 25 22
3 15 17 2 25 27 21 25 27 25 23 22 23 24 24 21 14 9 12 18 35 48 52 54 55 54 52 51 52 51 49 47 45 41 40 34 30 25 23 23 22 20 20 21
5 9 12 24 33 20 23 27 26 28 27 25 24 26 28 26 22 14 11 17 30 45 52 55 57 57 56 55 56 55 54 50 47 44 44 38 36 33 33 29 34 27 27 25
10 23 26 28 14 19 26 25 26 26 25 25 26 28 30 32 29 28 14 19 28 43 50 53 56 58 58 58 58 58 58 53 48 46 43 44 41 37 37 36 33 41 38 31
18 22 25 14 25 23 22 23 23 24 21 23 27 28 31 34 33 29 21 13 25 35 48 54 58 61 60 60 61 59 62 55 50 49 44 45 43 42 38 38 39 40 46 47
26 26 24 26 23 18 18 23 23 22 23 24 26 28 32 34 33 31 28 16 14 32 43 53 58 62 62 62 65 63 61 55 52 46 46 43 42 42 40 40 38 38 39 51
27 24 26 29 27 21 18 23 25 24 26 27 27 28 31 31 29 28 27 22 13 26 35 49 57 62 63 64 69 64 64 58 58 49 48 47 46 44 42 42 41 42 45 46
38 35 32 28 27 32 29 23 25 27 28 28 28 30 29 29 28 29 28 26 16 14 26 39 49 55 63 64 71 61 58 60 63 55 50 51 50 49 46 45 45 45 46 47
29 28 25 26 27 29 29 26 28 29 30 29 30 29 28 28 30 30 32 30 19 9 11 18 32 47 59 66 70 65 61 58 67 61 52 53 52 52 51 51 50 49 47 48
22 27 30 29 27 29 30 29 28 29 29 29 29 27 27 26 26 28 28 26 16 15 5 9 24 45 50 63 70 68 64 61 60 68 60 55 56 52 54 54 53 52 49 49
33 34 32 33 34 31 33 33 36 33 32 28 28 26 26 24 26 26 24 19 17 21 16 18 19 25 32 41 66 64 66 65 65 62 69 62 60 62 58 56 53 53 53 54
36 35 34 39 36 38 36 37 37 36 35 29 26 26 25 25 25 25 22 17 12 22 14 21 12 3 28 35 40 65 61 65 67 66 64 74 66 64 64 58 59 58 57 59
32 32 32 34 41 45 48 39 37 40 43 37 33 31 28 26 23 23 20 21 18 25 19 16 20 14 23 38 42 49 63 63 66 67 65 65 74 67 68 68 63 63 65 62
26 28 28 30 33 39 44 44 41 46 45 44 37 38 34 31 25 27 28 19 20 28 27 19 19 18 19 23 23 39 49 62 61 64 65 64 64 73 65 66 62 59 55 60
17 21 26 28 27 29 37 40 41 45 47 47 47 47 44 40 32 22 27 34 32 34 31 37 33 24 20 18 17 21 35 52 51 56 57 58 58 58 65 59 63 60 58 62
15 15 18 27 26 25 31 37 37 43 48 49 48 54 49 41 37 41 38 37 33 37 36 32 39 39 32 24 19 24 27 27 41 42 48 49 52 54 55 67 63 55 51 66
12 13 10 19 22 20 27 31 35 38 45 48 47 52 57 52 45 46 37 36 37 34 35 35 32 30 32 27 26 26 27 31 33 29 37 43 50 52 53 62 64 68 72 77
11 7 16 14 21 19 24 24 28 33 36 43 47 47 51 63 64 52 48 39 32 30 31 35 36 35 33 31 31 29 30 35 39 39 39 42 45 49 52 52 57 66 80 81
Wind_Direction_850mb
271 294 301 210 206 198 194 206 201 197 193 164 125 104 105 137 156 160 166 168 168 170 168 165 168 166 166 167 168 168 168 163 164 142 137 151 154 154 152 162 156 156 146 119
277 274 281 209 213 202 196 199 222 183 193 164 131 129 129 130 171 175 175 176 173 173 171 169 170 168 169 169 168 166 165 158 148 144 146 151 145 146 148 153 151 154 146 137
237 257 260 212 202 196 200 195 213 192 196 204 153 142 124 78 120 189 183 181 180 178 175 173 172 170 171 170 167 165 162 154 149 149 150 147 148 150 152 154 150 155 152 150
265 248 217 201 204 198 192 194 203 223 195 160 54 41 31 0 341 226 193 182 182 183 178 174 171 171 170 171 168 166 164 159 155 158 157 156 158 159 165 170 163 166 165 163
251 229 105 81 150 173 186 151 29 319 260 35 42 346 185 39 340 327 271 182 185 183 179 177 174 171 171 171 169 169 167 164 161 162 161 160 166 170 172 181 164 168 172 172
259 226 169 318 15 21 359 104 43 8 23 8 346 242 92 358 344 335 319 181 181 181 179 177 178 176 172 173 172 174 170 167 167 169 169 164 157 158 163 155 136 156 156 156
259 244 116 336 322 289 206 81 34 35 39 3 316 334 323 318 324 324 292 186 182 180 180 179 179 178 178 176 177 175 171 169 166 164 162 159 155 156 150 143 140 123 134 138
228 235 103 343 50 11 60 72 43 32 31 2 330 315 311 309 303 290 264 207 186 181 181 181 182 181 183 181 177 174 173 172 170 166 166 167 160 148 148 147 127 119 121 123
40 46 295 35 55 42 21 43 28 18 13 1 346 342 321 308 296 273 238 212 191 186 183 184 185 185 185 185 179 176 175 176 176 174 173 172 167 155 156 153 146 136 136 138
311 9 324 54 40 26 18 2 7 11 9 2 356 346 339 326 307 273 238 212 196 190 187 186 187 188 187 186 182 179 178 178 179 179 177 176 175 168 167 163 164 167 154 152
17 6 310 258 7 357 5 358 356 3 359 5 356 354 348 338 329 288 238 221 203 195 190 190 189 189 187 187 184 183 182 181 182 184 182 182 179 181 179 176 176 173 168 162
356 359 309 308 322 347 346 346 342 346 347 358 355 351 351 352 349 333 264 227 206 200 195 193 192 191 188 189 187 185 185 186 186 186 189 189 186 190 191 189 191 187 174 173
309 311 304 304 302 333 332 333 335 331 338 347 354 351 355 354 354 340 285 237 218 205 200 196 194 193 192 190 189 189 187 189 190 188 193 192 194 195 196 199 200 194 188 188
331 338 319 318 322 320 316 323 329 330 337 343 348 351 355 355 355 353 343 300 227 210 204 200 197 196 194 192 192 192 192 194 192 191 197 197 198 198 199 200 199 199 199 199
343 333 307 303 305 324 326 320 329 330 336 338 342 349 353 354 353 349 347 320 242 213 207 203 200 199 195 193 193 192 192 195 194 198 199 199 201 201 202 201 201 201 200 201
338 329 334 333 329 331 331 324 320 327 326 329 331 336 342 346 347 350 350 351 302 220 213 207 205 202 198 195 194 195 196 194 196 199 200 202 201 203 203 203 202 202 203 205
360 356 347 342 338 330 328 326 318 317 316 319 322 325 331 339 344 350 352 347 329 270 220 213 211 206 203 201 198 199 200 199 201 196 203 205 204 205 204 204 204 205 207 208
18 3 354 346 345 344 337 334 329 322 320 315 313 315 321 332 337 344 348 351 348 284 247 213 213 211 207 206 204 203 203 204 205 202 205 206 208 207 208 208 208 209 210 211
3 2 8 3 357 357 353 349 342 329 317 309 309 306 310 316 326 333 342 353 354 28 27 269 235 206 209 210 207 206 207 207 208 206 207 208 208 209 211 212 213 213 212 212
15 21 14 1 4 7 1 354 346 343 338 322 312 307 302 307 316 326 330 340 10 345 347 317 286 244 223 214 212 211 211 211 210 212 208 209 210 211 213 215 216 217 216 215
12 16 8 13 11 11 12 8 2 356 349 342 329 313 303 302 302 314 321 316 344 332 24 9 355 288 226 225 223 214 215 217 212 211 213 214 213 212 214 215 217 218 220 220
11 16 8 10 13 14 12 8 11 10 5 358 348 342 326 311 310 304 302 304 302 312 338 345 325 265 249 217 215 218 219 221 218 215 214 216 218 216 214 216 217 219 220 223
4 9 5 6 5 9 17 20 16 14 13 9 3 358 342 333 319 305 299 289 304 302 310 318 310 288 257 243 223 229 228 222 226 218 219 218 219 218 219 219 220 222 225 227
10 6 9 6 356 3 8 9 15 16 15 10 10 10 355 340 316 310 307 296 304 305 295 294 296 298 290 256 264 255 235 220 228 222 222 224 223 220 216 215 213 212 219 224
357 6 22 5 3 1 3 3 8 7 9 9 9 8 2 358 342 311 303 307 299 292 289 287 292 287 280 276 272 260 260 242 232 226 225 226 223 222 219 214 220 223 242 257
346 2 31 18 4 5 4 3 7 5 10 7 7 10 5 3 353 348 327 291 278 288 283 275 273 279 280 271 266 269 256 256 253 240 229 228 228 226 226 226 233 238 251 262
333 348 354 6 3 7 9 360 1 1 3 6 6 0 4 4 7 359 351 340 315 285 283 276 269 266 269 268 263 263 262 258 254 247 239 247 246 241 241 240 243 246 247 245